COSMOS 2143 DEB, 57721

Orbit data source: Space-Track

COSMOS 2143 DEB, 57721 is space debris in LEO originally from a launch on Thu, 16 May 1991 UTC launched from the Plesetsk Missile And Space Complex (PKMTR). Debris objects in space refer to the collection of defunct objects orbiting the Earth. Examples of debris include non-operational satellites, rocket bodies, and fragments generated from explosions, collisions, or faulty payload assembly.

Loading next visibility...
Identifier
57721, 1991-033J
Orbit
LEO
Country
Flag of CISCIS
Related business
Manufacturer
NPO PM
Mission
Spacecraft
Bus & Motor
Unknown
Mass
Unknown
Launch date (UTC)
1991-05-16 (35 years ago)
Launch vehicle
Unknown
Launch site
Plesetsk Missile And Space Complex (PKMTR)
Object type
Payload
Rocket body
Debris
Shape & HBR
Unknown shape, 0.1 m
Radar Cross Section
Medium (>0.1 m² and <1 m²)

Expand to show TLE details & history
Last TLE update: 3 days ago

TLE from 3 days ago
0 COSMOS 2143 DEB
1 57721U 91033J   26170.67316621  .00001100  00000-0  51678-2 0  9997
2 57721  82.1381 250.4201 0028394  48.8427 311.5113 12.74406502134026
Epoch: 2026-06-19T16:09Z
TLE epoch observation values (Epoch: 2026-06-19T16:09:21.560Z)
Latitude
-0.00003°
Longitude
100.18149°
Altitude
1,352.24 km
Speed
7.189 km/s
True Right ascension
16h 41m 40s
True Declination
0° 00' 00"
Sunlit
Object was in full shadow at epoch
Visualization orbit readout
Latitude
Unknown
Longitude
Unknown
Altitude
Unknown
Speed
Unknown
Apparent Right ascension
Unknown
Apparent Declination
Unknown
Sunlit
N/A
Visualization observer readout
Local Sidereal Time
21:35:53
Azimuth
Unknown
Elevation
Unknown
Doppler factor
Unknown
Orbital elements
Apogee altitude
1,383.338 km
Perigee altitude
1,339.387 km
Semi-major axis
7,739.499 km
Eccentricity
0.00284
Inclination
82.1381°
RAAN
250.4201°
Arg. of periapsis
48.8427°
True anomaly
311.26708°
Mean anomaly
311.5113°
Eccentric anomaly
311.38925°
Mean motion
3.18767 °/min
Orbital period
112.94 mins
BSTAR
0.0051678
Loading maneuver chart data...
Computing Atmospheric mass density...
Loading historical data...
Loading historical data...
Loading historical data...
Loading historical data...
Loading historical data...
Loading historical data...
Loading historical data...

Documentation

Showing up to 5 results
|